Location: Aultman
(40.9284°N, 81.4173°W)
Time: 09:37:14
(UTC+00:00)

X-37B - Pass Details

Date: 24 January 2021
Orbit: 383 x 391 km, 45.0° (Epoch: 27 February)

Event Time Altitude Azimuth Distance (km) Brightness Sun altitude
Rises 22:57:44 0° 265° (W) 2,267 6.3 -5.1°
Reaches altitude 10° 22:59:51 10° 271° (W) 1,415 4.8 -5.4°
Maximum altitude 23:02:57 48° 347° (NNW) 516 1.2 -6.0°
Drops below altitude 10° 23:06:04 10° 64° (ENE) 1,422 2.8 -6.5°
Enters shadow 23:06:20 - 65° (ENE) 1,529 2.9 -6.6°
